Location: Aldenham
(51.6667°N, 0.3500°W)
Time: 04:08:09
(UTC+00:00)

A-11 Canister half - Pass Details

Date: 23 February 2026
Orbit: 1512 x 1687 km, 47.2° (Epoch: 7 March)

Event Time Altitude Azimuth Distance (km) Brightness Sun altitude
Rises 03:10:55 0° 287° (WNW) 4,879 - -35.0°
Reaches altitude 10° 03:15:23 10° 270° (W) 3,858 - -34.4°
Maximum altitude 03:21:19 18° 232° (SW) 3,204 - -33.6°
Drops below altitude 10° 03:27:09 10° 194° (SSW) 3,761 - -32.8°
Sets 03:31:27 0° 176° (S) 4,710 - -32.3°
